La Grande, OR

1:05 PM PST on December 09, 2019 (GMT -0800)
La Grande-Union County

Weather History for KLGD - September, 2019

Change the Weather History Date:

Monday, September 9, 2019

  Actual Average Record
Temperature  
Mean Temperature 56 °F -  
Max Temperature 66 °F 75 °F 93 °F (2011)
Min Temperature 48 °F 44 °F 31 °F (1970)
Degree Days  
Heating Degree Days 9    
Growing Degree Days 6 (Base 50)    
Moisture  
Dew Point 49 °F    
Average Humidity 75    
Maximum Humidity 93    
Minimum Humidity 56    
Precipitation  
Precipitation 0.17 in - - ()
Sea Level Pressure  
Sea Level Pressure 30.31 in    
Wind  
Wind Speed 4 mph (SSE)    
Max Wind Speed 12 mph    
Max Gust Speed -    
Visibility 10 miles    
Events Rain , Thunderstorm    
Averages and records for this station are not official NWS values.
T = Trace of Precipitation, MM = Missing Value Source: NWS Daily Summary

Daily Weather History Graph

Daily Weather History Graph

Search for Another Location

Airport or City:

Astronomy

Sep. 09, 2019 Rise Set
Actual Time 6:23 AM PDT 7:14 PM PDT
Civil Twilight 5:53 AM PDT 7:44 PM PDT
Nautical Twilight 5:17 AM PDT 8:20 PM PDT
Astronomical Twilight 4:40 AM PDT 8:57 PM PDT
Moon 5:26 PM PDT 1:45 AM PDT
Length of Visible Light 13h 51m
Length of Day
12h 51m
Waxing Gibbous, 83% of the Moon is Illuminated
Sep 9
Waxing Gibbous
Sep 13
Full
Sep 21
Last Quarter
Sep 28
New
Oct 5
First Quarter

Hourly Weather History & Observations

Time (PDT) Temp. Dew Point Humidity Pressure Visibility Wind Dir Wind Speed Gust Speed Precip Events Conditions
12:56 AM 54.0 °F 50.0 °F 86% 30.33 in 10.0 mi Calm Calm - N/A   Overcast
1:56 AM 54.0 °F 51.1 °F 90% 30.34 in 10.0 mi WSW 4.6 mph - N/A   Overcast
2:56 AM 55.9 °F 48.9 °F 77% 30.34 in 10.0 mi ENE 3.5 mph - 0.00 in   Overcast
3:56 AM 52.0 °F 50.0 °F 93% 30.34 in 10.0 mi ESE 6.9 mph - N/A   Mostly Cloudy
5:56 AM 54.0 °F 48.9 °F 83% 30.35 in 10.0 mi Calm Calm - N/A   Mostly Cloudy
6:56 AM 53.1 °F 48.9 °F 86% 30.36 in 10.0 mi SE 5.8 mph - 0.00 in   Mostly Cloudy
7:56 AM 55.9 °F 50.0 °F 80% 30.36 in 10.0 mi WNW 3.5 mph - N/A   Overcast
8:56 AM 59.0 °F 48.0 °F 67% 30.37 in 10.0 mi Variable 4.6 mph - N/A   Mostly Cloudy
9:56 AM 61.0 °F 46.0 °F 58% 30.36 in 10.0 mi Calm Calm - N/A   Mostly Cloudy
10:56 AM 62.1 °F 46.0 °F 56% 30.36 in 10.0 mi Variable 3.5 mph - 0.00 in   Mostly Cloudy
11:47 AM 57.2 °F 50.0 °F 77% 29.96 in 2.0 mi ENE 10.4 mph - 0.14 in Rain Light Rain
11:56 AM 57.9 °F 50.0 °F 75% 30.36 in 10.0 mi ENE 5.8 mph - 0.14 in Rain , Thunderstorm Light Thunderstorms and Rain
12:17 PM 60.8 °F 51.8 °F 72% 29.95 in 10.0 mi East 5.8 mph - 0.00 in   Mostly Cloudy
12:56 PM 59.0 °F 48.9 °F 69% 30.35 in 10.0 mi ESE 11.5 mph - 0.01 in   Mostly Cloudy
1:56 PM 64.0 °F 48.9 °F 58% 30.35 in 10.0 mi South 8.1 mph - 0.00 in   Scattered Clouds
2:56 PM 64.0 °F 48.0 °F 56% 30.34 in 10.0 mi NNE 5.8 mph - N/A   Clear
3:56 PM 62.1 °F 48.0 °F 60% 30.32 in 10.0 mi SSE 4.6 mph - 0.00 in Rain Light Rain
4:56 PM 63.0 °F 48.0 °F 58% 30.32 in 10.0 mi SSE 5.8 mph - 0.00 in   Clear
5:56 PM 61.0 °F 50.0 °F 67% 30.32 in 10.0 mi SSW 5.8 mph - 0.00 in Rain Light Rain
6:56 PM 57.9 °F 51.1 °F 78% 30.31 in 10.0 mi North - - 0.02 in   Mostly Cloudy
7:56 PM 55.0 °F 50.0 °F 83% 30.32 in 10.0 mi SSW 4.6 mph - N/A   Clear
8:56 PM 51.1 °F 48.0 °F 89% 30.33 in 10.0 mi Calm Calm - N/A   Mostly Cloudy
9:56 PM 51.1 °F 46.9 °F 86% 30.33 in 10.0 mi South 4.6 mph - N/A   Clear
10:56 PM 48.0 °F 45.0 °F 89% 30.34 in 10.0 mi South 6.9 mph - N/A   Clear
11:56 PM 48.0 °F 45.0 °F 89% 30.34 in 10.0 mi WNW 3.5 mph - N/A   Partly Cloudy